sat.trackr.live / text

‹ back to catalog

2025-313V

NORAD 67267 · 2025-313V

PAYLOAD ACTIVE UNKNOWN

§ Identity

Operator
Country
TBD
Launch date
2025-12-28
Launch site
VOSTO
Launch vehicle
Mass (kg)
RCS (m²)

External: N2YO · Heavens-Above · Gunter

§ Orbital elements

Epoch: 2026-09-20T11:49:45.412608Z

Period
94.38 min
Inclination
97.3862°
Eccentricity
0.0013943
Mean motion
15.25711681 rev/d
Perigee alt
479.1 km
Apogee alt
498.2 km
Semi-major
6,866.8 km
B*
2.9305e-4
RAAN
337.0370°
Arg perigee
38.9766°
Mean anomaly
321.2474°
Rev number
4,048

§ Raw data

2025-313V1 67267U 25313V   26263.49288672  .00007419  00000+0  29305-3 0  99992 67267  97.3862 337.0370 0013943  38.9766 321.2474 15.25711681 40483

JSON: /api/v1/satellites/67267 · /tle

For live sub-satellite position, see the globe view (requires WebGL).

§ Visibility from observer

Set your observer location to see the next 7 days of passes ≥ 10°. The values pass through the URL so the page stays shareable.

No JS? Fill the form by hand. The geolocation button needs JavaScript.